This is the latest recevied weather packets stored in our database for station/object W0AKO. If no packets are shown the sender has not sent any weather packets the latest 10 day(s).
| Time | Temp. | Humidity | Pressure | Rain* | Wind** | Luminosity | Snow |
|---|---|---|---|---|---|---|---|
| 1777980247 | 12.22° C | 10% | 1012.6 hPa | 0 mm | - | 0 W/m² | - |
| 1777979943 | 12.22° C | 10% | 1012.5 hPa | 0 mm | - | 0 W/m² | - |
| 1777979637 | 12.22° C | 10% | 1012.3 hPa | 0 mm | - | 0 W/m² | - |
| 1777979333 | 12.22° C | 10% | 1012.2 hPa | 0 mm | - | 0 W/m² | - |
| 1777979031 | 12.78° C | 10% | 1012.3 hPa | 0 mm | - | 0 W/m² | - |
| 1777978728 | 13.89° C | 10% | 1012.2 hPa | 0 mm | - | 0 W/m² | - |
| 1777978424 | 13.89° C | 10% | 1012.2 hPa | 0 mm | - | 0 W/m² | - |
| 1777978120 | 13.33° C | 10% | 1012.2 hPa | 0 mm | - | 0 W/m² | - |
| 1777977818 | 12.78° C | 10% | 1012.2 hPa | 0 mm | - | 0 W/m² | - |
| 1777977513 | 13.33° C | 10% | 1012.5 hPa | 0 mm | - | 0 W/m² | - |
| 1777977212 | 13.33° C | 10% | 1012.2 hPa | 0 mm | - | 0 W/m² | - |
| 1777976909 | 13.33° C | 10% | 1012.1 hPa | 0 mm | - | 0 W/m² | - |
| 1777976606 | 13.33° C | 10% | 1012.2 hPa | 0 mm | - | 0 W/m² | - |
| 1777976301 | 13.33° C | 10% | 1012.1 hPa | 0 mm | - | 0 W/m² | - |
| 1777975996 | 13.89° C | 10% | 1012 hPa | 0 mm | - | 0 W/m² | - |
| 1777975693 | 13.33° C | 10% | 1012.1 hPa | 0 mm | - | 0 W/m² | - |
| 1777975389 | 13.89° C | 10% | 1012.2 hPa | 0 mm | - | 0 W/m² | - |
| 1777975085 | 13.89° C | 10% | 1012 hPa | 0 mm | - | 0 W/m² | - |
| 1777974783 | 14.44° C | 10% | 1012 hPa | 0 mm | - | 0 W/m² | - |
| 1777974478 | 14.44° C | 10% | 1012 hPa | 0 mm | - | 0 W/m² | - |
| 1777974176 | 14.44° C | 10% | 1011.9 hPa | 0 mm | - | 0 W/m² | - |
| 1777973871 | 14.44° C | 10% | 1012.2 hPa | 0 mm | - | 0 W/m² | - |
| 1777973569 | 15° C | 10% | 1012 hPa | 0 mm | - | 0 W/m² | - |
| 1777973266 | 15° C | 10% | 1011.9 hPa | 0 mm | - | 0 W/m² | - |
| 1777972964 | 15° C | 10% | 1012.1 hPa | 0 mm | - | 0 W/m² | - |
* Rain latest hour (hover to see other rain measurements)
** Current wind speed in m/s (hover to see current wind gust speed)